When you browse on this site, cookies collect data to enhance your experience and personalize the content and advertising you see.
Visit our Privacy Policy to learn more. By continuing to use the site, you agree to this use of cookies and data.
  • Em Portugal
  • Lista de países
  • Para 7 dias
  • Temperatura da água
  • Mapas de satélite
  • Mapa do tempo
  • Widgets de tempo
  • user-avatar
    Iniciar Sessão

    Previsão horária em Silistra

    Hoje, 18 Junho, Terça-feira

    Tempo Temperatura Precipitação Vento Pressão Humidade
    00:00 +22°C° 0 mm 1 m/s 756 mmHg 72%
    01:00 +22°C° 0 mm 1 m/s 756 mmHg 72%
    02:00 +21°C° 0 mm 1 m/s 756 mmHg 73%
    03:00 +21°C° 0 mm 1 m/s 755 mmHg 76%
    04:00 +21°C° 0 mm 1 m/s 755 mmHg 80%
    05:00 +21°C° 0 mm 1 m/s 755 mmHg 84%
    06:00 +21°C° 0.1 mm 2 m/s 756 mmHg 80%
    07:00 +24°C° 0.1 mm 3 m/s 756 mmHg 76%
    08:00 +26°C° 0.1 mm 4 m/s 756 mmHg 73%
    09:00 +28°C° 0.3 mm 4 m/s 756 mmHg 63%
    10:00 +30°C° 0.3 mm 4 m/s 756 mmHg 54%
    11:00 +32°C° 0.3 mm 4 m/s 756 mmHg 44%
    12:00 +33°C° 0 mm 4 m/s 756 mmHg 42%
    13:00 +33°C° 0 mm 4 m/s 756 mmHg 40%
    14:00 +34°C° 0 mm 4 m/s 756 mmHg 38%
    15:00 +33°C° 0 mm 3 m/s 755 mmHg 43%
    16:00 +31°C° 0 mm 3 m/s 755 mmHg 47%
    17:00 +30°C° 0 mm 2 m/s 755 mmHg 52%
    18:00 +28°C° 0 mm 3 m/s 755 mmHg 55%
    19:00 +27°C° 0 mm 3 m/s 755 mmHg 59%
    20:00 +25°C° 0 mm 3 m/s 755 mmHg 62%
    21:00 +24°C° 0 mm 2 m/s 755 mmHg 62%
    22:00 +23°C° 0 mm 1 m/s 755 mmHg 63%
    23:00 +23°C° 0 mm 1 m/s 756 mmHg 63%

    Amanhã, 19 Junho, Quarta-feira

    Tempo Temperatura Precipitação Vento Pressão Humidade
    00:00 +22°C° 0 mm 1 m/s 756 mmHg 68%
    01:00 +21°C° 0 mm 1 m/s 755 mmHg 73%
    02:00 +20°C° 0 mm 1 m/s 755 mmHg 78%
    03:00 +17°C° 0 mm 0 m/s 755 mmHg 78%
    04:00 +17°C° 0 mm 0 m/s 755 mmHg 78%
    05:00 +17°C° 0 mm 0 m/s 755 mmHg 77%
    06:00 +22°C° 0 mm 1 m/s 755 mmHg 71%
    07:00 +24°C° 0 mm 1 m/s 755 mmHg 65%
    08:00 +26°C° 0 mm 2 m/s 756 mmHg 59%
    09:00 +28°C° 0 mm 2 m/s 756 mmHg 55%
    10:00 +29°C° 0 mm 2 m/s 755 mmHg 50%
    11:00 +31°C° 0 mm 2 m/s 755 mmHg 45%
    12:00 +31°C° 0 mm 2 m/s 755 mmHg 45%
    13:00 +31°C° 0 mm 2 m/s 755 mmHg 46%
    14:00 +31°C° 0 mm 2 m/s 755 mmHg 46%
    15:00 +31°C° 0 mm 2 m/s 754 mmHg 48%
    16:00 +30°C° 0 mm 2 m/s 754 mmHg 49%
    17:00 +30°C° 0 mm 3 m/s 754 mmHg 51%
    18:00 +29°C° 0 mm 2 m/s 754 mmHg 57%
    19:00 +27°C° 0 mm 2 m/s 754 mmHg 62%
    20:00 +25°C° 0 mm 1 m/s 754 mmHg 68%
    21:00 +24°C° 0.1 mm 1 m/s 754 mmHg 71%
    22:00 +23°C° 0.1 mm 1 m/s 754 mmHg 73%
    23:00 +20°C° 0.1 mm 0 m/s 754 mmHg 76%

    Depois de amanhã, 20 Junho, Quinta-feira

    Tempo Temperatura Precipitação Vento Pressão Humidade
    00:00 +20°C° 0 mm 0 m/s 754 mmHg 77%
    01:00 +22°C° 0 mm 1 m/s 754 mmHg 77%
    02:00 +21°C° 0 mm 1 m/s 754 mmHg 78%
    03:00 +21°C° 0 mm 1 m/s 754 mmHg 78%
    04:00 +21°C° 0 mm 1 m/s 754 mmHg 79%
    05:00 +21°C° 0 mm 1 m/s 754 mmHg 79%
    06:00 +23°C° 0 mm 1 m/s 754 mmHg 74%
    07:00 +24°C° 0 mm 1 m/s 754 mmHg 70%
    08:00 +26°C° 0 mm 1 m/s 754 mmHg 65%
    09:00 +28°C° 0.8 mm 2 m/s 754 mmHg 62%
    10:00 +29°C° 0.8 mm 2 m/s 754 mmHg 58%
    11:00 +30°C° 0.8 mm 2 m/s 754 mmHg 55%
    12:00 +30°C° 0.1 mm 2 m/s 754 mmHg 53%
    13:00 +31°C° 0.1 mm 2 m/s 754 mmHg 51%
    14:00 +31°C° 0.1 mm 3 m/s 754 mmHg 49%
    15:00 +31°C° 0 mm 2 m/s 753 mmHg 50%
    16:00 +31°C° 0 mm 2 m/s 753 mmHg 51%
    17:00 +31°C° 0 mm 1 m/s 753 mmHg 52%
    18:00 +29°C° 0.4 mm 1 m/s 753 mmHg 60%
    19:00 +27°C° 0.4 mm 1 m/s 753 mmHg 67%
    20:00 +25°C° 0.4 mm 1 m/s 754 mmHg 75%
    21:00 +24°C° 0.1 mm 1 m/s 754 mmHg 77%
    22:00 +24°C° 0.1 mm 1 m/s 754 mmHg 78%
    23:00 +22°C° 0.1 mm 0 m/s 754 mmHg 80%

    21 Junho, Sexta-feira

    Tempo Temperatura Precipitação Vento Pressão Humidade
    00:00 +21°C° 0 mm 0 m/s 754 mmHg 81%
    01:00 +21°C° 0 mm 0 m/s 754 mmHg 83%
    02:00 +20°C° 0 mm 0 m/s 754 mmHg 84%
    03:00 +20°C° 0 mm 0 m/s 754 mmHg 85%
    04:00 +20°C° 0 mm 0 m/s 754 mmHg 86%
    05:00 +22°C° 0 mm 1 m/s 754 mmHg 86%
    06:00 +23°C° 0 mm 1 m/s 755 mmHg 81%
    07:00 +25°C° 0 mm 1 m/s 755 mmHg 75%
    08:00 +27°C° 0 mm 1 m/s 755 mmHg 70%
    09:00 +28°C° 0 mm 2 m/s 755 mmHg 63%
    10:00 +30°C° 0 mm 2 m/s 755 mmHg 57%
    11:00 +31°C° 0 mm 2 m/s 755 mmHg 50%
    12:00 +32°C° 0.3 mm 2 m/s 755 mmHg 48%
    13:00 +32°C° 0.3 mm 2 m/s 755 mmHg 46%
    14:00 +34°C° 0.3 mm 2 m/s 755 mmHg 44%
    15:00 +32°C° 0.1 mm 2 m/s 754 mmHg 48%
    16:00 +31°C° 0.1 mm 2 m/s 754 mmHg 52%
    17:00 +30°C° 0.1 mm 2 m/s 754 mmHg 56%
    18:00 +29°C° 0.1 mm 2 m/s 754 mmHg 60%
    19:00 +28°C° 0.1 mm 2 m/s 754 mmHg 64%
    20:00 +26°C° 0.1 mm 1 m/s 754 mmHg 67%
    21:00 +26°C° 0 mm 1 m/s 755 mmHg 70%
    22:00 +25°C° 0 mm 1 m/s 755 mmHg 73%
    23:00 +24°C° 0 mm 1 m/s 755 mmHg 76%

    22 Junho, Sábado

    Tempo Temperatura Precipitação Vento Pressão Humidade
    00:00 +23°C° 0 mm 1 m/s 755 mmHg 77%
    01:00 +21°C° 0 mm 0 m/s 755 mmHg 79%
    02:00 +21°C° 0 mm 0 m/s 755 mmHg 80%
    03:00 +21°C° 0 mm 0 m/s 755 mmHg 81%
    04:00 +20°C° 0 mm 0 m/s 755 mmHg 82%
    05:00 +20°C° 0 mm 0 m/s 755 mmHg 82%
    06:00 +22°C° 0 mm 0 m/s 755 mmHg 77%
    07:00 +26°C° 0 mm 1 m/s 755 mmHg 72%
    08:00 +27°C° 0 mm 1 m/s 756 mmHg 67%
    09:00 +29°C° 0 mm 1 m/s 756 mmHg 60%
    10:00 +31°C° 0 mm 1 m/s 756 mmHg 54%
    11:00 +32°C° 0 mm 1 m/s 756 mmHg 48%
    12:00 +33°C° 0 mm 1 m/s 756 mmHg 45%
    13:00 +34°C° 0 mm 1 m/s 756 mmHg 41%
    14:00 +35°C° 0 mm 1 m/s 755 mmHg 38%
    15:00 +34°C° 0 mm 1 m/s 755 mmHg 40%
    16:00 +35°C° 0 mm 2 m/s 755 mmHg 42%
    17:00 +34°C° 0 mm 3 m/s 755 mmHg 43%
    18:00 +31°C° 0.6 mm 3 m/s 755 mmHg 52%
    19:00 +28°C° 0.6 mm 3 m/s 755 mmHg 61%
    20:00 +26°C° 0.6 mm 3 m/s 755 mmHg 69%
    21:00 +25°C° 0.3 mm 3 m/s 756 mmHg 71%
    22:00 +25°C° 0.3 mm 2 m/s 756 mmHg 73%
    23:00 +24°C° 0.3 mm 2 m/s 756 mmHg 74%

    23 Junho, Domingo

    Tempo Temperatura Precipitação Vento Pressão Humidade
    00:00 +24°C° 0 mm 2 m/s 756 mmHg 75%
    01:00 +24°C° 0 mm 2 m/s 756 mmHg 75%
    02:00 +24°C° 0 mm 2 m/s 756 mmHg 75%
    03:00 +23°C° 0.1 mm 1 m/s 756 mmHg 77%
    04:00 +23°C° 0.1 mm 1 m/s 756 mmHg 79%
    05:00 +23°C° 0.1 mm 1 m/s 756 mmHg 81%
    06:00 +24°C° 0.1 mm 1 m/s 756 mmHg 77%
    07:00 +26°C° 0.1 mm 1 m/s 756 mmHg 72%
    08:00 +28°C° 0.1 mm 1 m/s 756 mmHg 68%
    09:00 +29°C° 0.4 mm 1 m/s 756 mmHg 61%
    10:00 +31°C° 0.4 mm 1 m/s 757 mmHg 54%
    11:00 +33°C° 0.4 mm 1 m/s 757 mmHg 47%
    12:00 +33°C° 0 mm 1 m/s 756 mmHg 45%
    13:00 +35°C° 0 mm 2 m/s 756 mmHg 43%
    14:00 +35°C° 0 mm 2 m/s 756 mmHg 41%
    15:00 +35°C° 0 mm 2 m/s 756 mmHg 42%
    16:00 +35°C° 0 mm 2 m/s 756 mmHg 42%
    17:00 +35°C° 0 mm 2 m/s 756 mmHg 43%
    18:00 +32°C° 0 mm 2 m/s 756 mmHg 49%
    19:00 +30°C° 0 mm 1 m/s 756 mmHg 55%
    20:00 +28°C° 0 mm 1 m/s 756 mmHg 61%
    21:00 +27°C° 0.1 mm 1 m/s 756 mmHg 63%
    22:00 +26°C° 0.1 mm 1 m/s 756 mmHg 65%
    23:00 +26°C° 0.1 mm 1 m/s 756 mmHg 67%
    Mostrar mais